| time (UTC) | temp F | wind direction | speed knots | gust knots | rain 1hr in | rain 24hr in | rain mn in | humidity % | barometer mb |
| 20260505015228 | 72 | 226 | 12.2 | 13.9 | 0.00 | 0.00 | 0.00 | 56 | 1019.7 |
| 20260505015131 | 72 | 225 | 13.0 | 18.2 | 0.00 | 0.00 | 0.00 | 55 | 1019.7 |
| 20260505014130 | 72 | 225 | 12.2 | 16.5 | 0.00 | 0.00 | 0.00 | 56 | 1019.6 |
| 20260505014030 | 72 | 226 | 13.0 | 16.5 | 0.00 | 0.00 | 0.00 | 55 | 1019.7 |
| 20260505013129 | 72 | 225 | 12.2 | 15.6 | 0.00 | 0.00 | 0.00 | 55 | 1019.7 |
| 20260505012229 | 72 | 222 | 12.2 | 16.5 | 0.00 | 0.00 | 0.00 | 56 | 1019.7 |
| 20260505011328 | 71 | 223 | 14.8 | 19.1 | 0.00 | 0.00 | 0.00 | 56 | 1019.6 |
| 20260505010329 | 71 | 223 | 13.9 | 18.2 | 0.00 | 0.00 | 0.00 | 56 | 1019.7 |
| 20260505004329 | 72 | 220 | 16.5 | 20.9 | 0.00 | 0.00 | 0.00 | 55 | 1019.8 |
| 20260505003330 | 71 | 224 | 15.6 | 20.9 | 0.00 | 0.00 | 0.00 | 54 | 1019.7 |
| 20260505002428 | 72 | 225 | 17.4 | 22.6 | 0.00 | 0.00 | 0.00 | 54 | 1019.7 |
| 20260505001429 | 71 | 226 | 14.8 | 20.9 | 0.00 | 0.00 | 0.00 | 55 | 1019.7 |
| 20260505000429 | 71 | 222 | 13.9 | 18.2 | 0.00 | 0.00 | 0.00 | 55 | 1019.6 |
| 20260504234528 | 71 | 228 | 13.0 | 18.2 | 0.00 | 0.00 | 0.00 | 55 | 1019.7 |
| 20260504233530 | 71 | 224 | 13.9 | 20.0 | 0.00 | 0.00 | 0.00 | 54 | 1019.8 |
| 20260504232629 | 71 | 222 | 13.0 | 20.9 | 0.00 | 0.00 | 0.00 | 54 | 1019.7 |
| 20260504231630 | 71 | 223 | 16.5 | 23.5 | 0.00 | 0.00 | 0.00 | 55 | 1019.5 |
| 20260504230629 | 71 | 224 | 14.8 | 21.7 | 0.00 | 0.00 | 0.00 | 55 | 1019.6 |
| 20260504225628 | 71 | 222 | 16.5 | 24.3 | 0.00 | 0.00 | 0.00 | 55 | 1019.6 |
| 20260504224728 | 70 | 219 | 14.8 | 21.7 | 0.00 | 0.00 | 0.00 | 56 | 1019.7 |
| 20260504223730 | 70 | 225 | 15.6 | 20.9 | 0.00 | 0.00 | 0.00 | 56 | 1020.0 |
| 20260504222730 | 70 | 227 | 14.8 | 20.0 | 0.00 | 0.00 | 0.00 | 58 | 1020.0 |
| 20260504220828 | 69 | 219 | 11.3 | 17.4 | 0.00 | 0.00 | 0.00 | 60 | 1020.3 |
| 20260504215828 | 69 | 215 | 13.9 | 17.4 | 0.00 | 0.00 | 0.00 | 60 | 1020.4 |
| 20260504215730 | 69 | 225 | 16.5 | 20.0 | 0.00 | 0.00 | 0.00 | 60 | 1020.5 |
| 20260504214729 | 68 | 225 | 14.8 | 20.9 | 0.00 | 0.00 | 0.00 | 60 | 1020.5 |
| 20260504214628 | 68 | 226 | 14.8 | 22.6 | 0.00 | 0.00 | 0.00 | 61 | 1020.5 |
| 20260504212630 | 67 | 222 | 14.8 | 20.9 | 0.00 | 0.00 | 0.00 | 63 | 1020.8 |
| 20260504211630 | 67 | 225 | 16.5 | 20.9 | 0.00 | 0.00 | 0.00 | 64 | 1020.9 |
| 20260504210729 | 67 | 220 | 16.5 | 23.5 | 0.00 | 0.00 | 0.00 | 64 | 1020.8 |
| 20260504204830 | 67 | 225 | 17.4 | 20.9 | 0.00 | 0.00 | 0.00 | 63 | 1021.0 |
| 20260504201030 | 66 | 209 | 11.3 | 15.6 | 0.00 | 0.00 | 0.00 | 65 | 1021.4 |
| 20260504195030 | 65 | 219 | 13.0 | 15.6 | 0.00 | 0.00 | 0.00 | 66 | 1021.6 |
| 20260504194128 | 65 | 225 | 14.8 | 20.9 | 0.00 | 0.00 | 0.00 | 66 | 1021.7 |
| 20260504193130 | 64 | 226 | 13.9 | 20.0 | 0.00 | 0.00 | 0.00 | 67 | 1021.7 |
| 20260504192229 | 64 | 227 | 11.3 | 19.1 | 0.00 | 0.00 | 0.00 | 66 | 1021.9 |
| 20260504191231 | 64 | 218 | 14.8 | 20.9 | 0.00 | 0.00 | 0.00 | 68 | 1021.9 |
| 20260504190228 | 64 | 226 | 18.2 | 24.3 | 0.00 | 0.00 | 0.00 | 68 | 1022.1 |
| 20260504185230 | 63 | 226 | 14.8 | 23.5 | 0.00 | 0.00 | 0.00 | 68 | 1021.9 |
| 20260504184129 | 63 | 225 | 14.8 | 18.2 | 0.00 | 0.00 | 0.00 | 68 | 1022.2 |
| 20260504183130 | 63 | 223 | 16.5 | 22.6 | 0.00 | 0.00 | 0.00 | 68 | 1022.2 |
| 20260504181230 | 63 | 225 | 10.4 | 15.6 | 0.00 | 0.00 | 0.00 | 68 | 1022.2 |
| 20260504175232 | 62 | 222 | 11.3 | 18.2 | 0.00 | 0.00 | 0.00 | 68 | 1022.4 |
| 20260504174328 | 62 | 222 | 14.8 | 20.9 | 0.00 | 0.00 | 0.00 | 68 | 1022.5 |
| 20260504172430 | 62 | 221 | 10.4 | 13.9 | 0.00 | 0.00 | 0.00 | 70 | 1022.6 |
| 20260504170428 | 62 | 207 | 11.3 | 15.6 | 0.00 | 0.00 | 0.00 | 70 | 1022.6 |
| 20260504150531 | 61 | 221 | 9.6 | 13.9 | 0.00 | 0.00 | 0.00 | 69 | 1022.4 |
| 20260504081730 | 58 | 22 | 0.0 | 0.9 | 0.00 | 0.00 | 0.00 | 74 | 1019.2 |
| 20260504080728 | 59 | 22 | 0.0 | 0.0 | 0.00 | 0.00 | 0.00 | 72 | 1019.3 |
| 20260504045910 | 65 | 22 | 0.0 | 0.0 | 0.00 | 0.00 | 0.00 | 60 | 1018.3 |
| 20260504045008 | 67 | 22 | 0.0 | 0.0 | 0.00 | 0.00 | 0.00 | 57 | 1018.1 |
| 20260504044008 | 69 | 22 | 0.0 | 0.0 | 0.00 | 0.00 | 0.00 | 52 | 1018.1 |
| 20260504043009 | 70 | 22 | 0.0 | 0.0 | 0.00 | 0.00 | 0.00 | 49 | 1017.9 |
| 20260504042009 | 70 | 360 | 2.6 | 4.3 | 0.00 | 0.00 | 0.00 | 49 | 1017.8 |
| 20260504041107 | 69 | 360 | 0.0 | 3.5 | 0.00 | 0.00 | 0.00 | 52 | 1017.7 |
| 20260504035109 | 71 | 315 | 0.0 | 0.0 | 0.00 | 0.00 | 0.00 | 49 | 1017.4 |
| 20260504034109 | 71 | 180 | 0.0 | 0.0 | 0.00 | 0.00 | 0.00 | 53 | 1017.3 |
| 20260504032211 | 71 | 180 | 0.0 | 0.0 | 0.00 | 0.00 | 0.00 | 51 | 1016.9 |
| 20260504031208 | 73 | 180 | 0.0 | 0.0 | 0.00 | 0.00 | 0.00 | 49 | 1016.9 |
| 20260504030207 | 75 | 180 | 0.0 | 0.0 | 0.00 | 0.00 | 0.00 | 45 | 1016.7 |
| 20260504030109 | 75 | 180 | 0.0 | 0.0 | 0.00 | 0.00 | 0.00 | 45 | 1016.7 |
| 20260504025108 | 75 | 180 | 0.0 | 0.0 | 0.00 | 0.00 | 0.00 | 43 | 1016.7 |
| 20260504025010 | 75 | 180 | 0.0 | 0.0 | 0.00 | 0.00 | 0.00 | 43 | 1016.6 |
| 20260504024108 | 76 | 180 | 0.0 | 0.0 | 0.00 | 0.00 | 0.00 | 40 | 1016.5 |
| 20260504023109 | 79 | 225 | 0.0 | 0.0 | 0.00 | 0.00 | 0.00 | 37 | 1016.5 |
| 20260504022207 | 79 | 225 | 0.9 | 0.9 | 0.00 | 0.00 | 0.00 | 37 | 1016.3 |
| 20260504021207 | 77 | 225 | 0.9 | 1.7 | 0.00 | 0.00 | 0.00 | 38 | 1016.4 |
| 20260504020210 | 77 | 247 | 1.7 | 2.6 | 0.00 | 0.00 | 0.00 | 38 | 1016.3 |